Weather History for Truckee-Tahoe, CA

Change the Weather History Date:

Monday, May 14, 2012

  Actual Average Record
Temperature  
Mean Temperature 52 °F -  
Max Temperature 68 °F 64 °F 81 °F (1976)
Min Temperature 35 °F 32 °F 19 °F (1968)
Degree Days  
Heating Degree Days 14    
Growing Degree Days 2 (Base 50)    
Moisture  
Dew Point 38 °F    
Average Humidity 72    
Maximum Humidity 100    
Minimum Humidity 30    
Precipitation  
Precipitation 0.00 in - - ()
Sea Level Pressure  
Sea Level Pressure 30.13 in    
Wind  
Wind Speed 3 mph (West)    
Max Wind Speed 20 mph    
Max Gust Speed 28 mph    
Visibility 9 miles    
Events Fog    
Averages and records for this station are not official NWS values.
T = Trace of Precipitation, MM = Missing Value Source: NWS Daily Summary

Daily Weather History Graph

Daily Weather History Graph

Search for Another Location

Airport:

Trip Planner

Search our weather history database for the weather conditions in past years. The results will help you decide how hot, cold, wet, or windy it might be!

Date:

Astronomy

May. 14, 2012 Rise Set
Actual Time 5:47 AM PDT 8:06 PM PDT
Civil Twilight 5:17 AM PDT 8:37 PM PDT
Nautical Twilight 4:39 AM PDT 9:14 PM PDT
Astronomical Twilight 3:59 AM PDT 9:55 PM PDT
Moon 2:22 AM PDT (5/14) 2:34 PM PDT (5/14)
Length of Visible Light 15h 20m
Length of Day
14h 19m
Waning Crescent, 31% of the Moon is Illuminated
May 14
Waning Crescent
May 20
New
May 28
First Quarter
Jun 4
Full
Jun 11
Last Quarter

Hourly Weather History & Observations

Time (PDT) Temp. Windchill Dew Point Humidity Pressure Visibility Wind Dir Wind Speed Gust Speed Precip Events Conditions
12:15 AM 42.8 °F - 39.2 °F 87% 30.19 in 10.0 mi Calm Calm - N/A   Unknown
12:35 AM 41.0 °F - 39.2 °F 93% 30.18 in 10.0 mi Calm Calm - N/A   Unknown
12:55 AM 44.6 °F - 41.0 °F 87% 30.18 in 10.0 mi Calm Calm - N/A   Unknown
1:15 AM 41.0 °F - 41.0 °F 100% 30.18 in 10.0 mi Calm Calm - N/A   Unknown
1:35 AM 44.6 °F - 39.2 °F 81% 30.17 in 10.0 mi Calm Calm - N/A   Unknown
1:55 AM 39.2 °F - 37.4 °F 93% 30.17 in 9.0 mi Calm Calm - N/A   Unknown
2:15 AM 39.2 °F - 37.4 °F 93% 30.17 in 10.0 mi Calm Calm - N/A   Unknown
2:35 AM 39.2 °F - 37.4 °F 93% 30.16 in 10.0 mi Calm Calm - N/A   Unknown
2:55 AM 39.2 °F - 37.4 °F 93% 30.16 in 10.0 mi Calm Calm - N/A   Unknown
3:15 AM 39.2 °F - 37.4 °F 93% 30.16 in 10.0 mi Calm Calm - N/A   Unknown
3:35 AM 37.4 °F - 35.6 °F 93% 30.16 in 0.2 mi Calm Calm - N/A Fog Fog
3:55 AM 37.4 °F - 35.6 °F 93% 30.16 in 0.5 mi Calm Calm - N/A Fog Fog
4:15 AM 37.4 °F - 37.4 °F 100% 30.16 in 10.0 mi Calm Calm - N/A   Unknown
4:35 AM 37.4 °F - 35.6 °F 93% 30.16 in 1.2 mi Calm Calm - N/A   Mist
4:55 AM 37.4 °F - 35.6 °F 93% 30.17 in 0.5 mi Calm Calm - N/A Fog Fog
5:15 AM 37.4 °F - 35.6 °F 93% 30.17 in 10.0 mi Calm Calm - N/A   Unknown
5:35 AM 35.6 °F - 35.6 °F 100% 30.17 in 1.5 mi Calm Calm - N/A   Mist
5:55 AM 35.6 °F - 35.6 °F 100% 30.17 in 0.5 mi Calm Calm - N/A Fog Fog
6:15 AM 35.6 °F - 35.6 °F 100% 30.17 in 9.0 mi Calm Calm - N/A   Unknown
6:35 AM 35.6 °F 32.8 °F 35.6 °F 100% 30.17 in 8.0 mi NE 3.5 mph - N/A   Unknown
6:50 AM 37.4 °F - 37.4 °F 100% 30.17 in 10.0 mi Calm Calm - N/A   Clear
7:50 AM 46.4 °F - 39.2 °F 76% 30.17 in 10.0 mi Calm Calm - N/A   Clear
8:50 AM 55.4 °F - 41.0 °F 58% 30.15 in 10.0 mi North 4.6 mph - N/A   Clear
9:50 AM 62.6 °F - 37.4 °F 39% 30.13 in 10.0 mi North 3.5 mph - N/A   Partly Cloudy
10:45 AM 64.4 °F - 33.8 °F 32% 30.12 in 10.0 mi NW 8.1 mph - N/A   Partly Cloudy
11:50 AM 68.0 °F - 35.6 °F 30% 30.11 in 10.0 mi West 11.5 mph 16.1 mph N/A   Scattered Clouds
12:45 PM 68.0 °F - 35.6 °F 30% 30.10 in 10.0 mi SW 4.6 mph 17.3 mph N/A   Mostly Cloudy
1:50 PM 66.2 °F - 39.2 °F 37% 30.08 in 10.0 mi West 13.8 mph - N/A   Mostly Cloudy
2:50 PM 64.4 °F - 39.2 °F 40% 30.08 in 10.0 mi WNW 17.3 mph 27.6 mph N/A   Mostly Cloudy
4:45 PM 64.4 °F - 37.4 °F 37% 30.07 in 10.0 mi West 13.8 mph 19.6 mph N/A   Mostly Cloudy
5:45 PM 62.6 °F - 39.2 °F 42% 30.07 in 10.0 mi WSW 16.1 mph 19.6 mph N/A   Mostly Cloudy
5:55 PM 64.4 °F - 35.6 °F 34% 30.07 in 10.0 mi West 10.4 mph - N/A   Unknown
6:15 PM 62.6 °F - 33.8 °F 34% 30.07 in 10.0 mi SW 6.9 mph - N/A   Unknown
6:35 PM 62.6 °F - 35.6 °F 37% 30.07 in 10.0 mi West 9.2 mph - N/A   Unknown
6:55 PM 59.0 °F - 37.4 °F 45% 30.08 in 10.0 mi WNW 19.6 mph 24.2 mph N/A   Unknown
7:15 PM 57.2 °F - 39.2 °F 51% 30.07 in 10.0 mi West 13.8 mph 21.9 mph N/A   Unknown
7:35 PM 55.4 °F - 39.2 °F 54% 30.08 in 10.0 mi West 11.5 mph - N/A   Unknown
7:55 PM 53.6 °F - 39.2 °F 58% 30.10 in 10.0 mi NW 11.5 mph - N/A   Unknown
8:15 PM 51.8 °F - 39.2 °F 62% 30.10 in 10.0 mi West 8.1 mph - N/A   Unknown
8:35 PM 50.0 °F - 39.2 °F 66% 30.11 in 10.0 mi West 10.4 mph - N/A   Unknown
8:55 PM 50.0 °F - 39.2 °F 66% 30.11 in 10.0 mi WSW 10.4 mph - N/A   Unknown
9:15 PM 48.2 °F - 39.2 °F 71% 30.12 in 10.0 mi ESE 5.8 mph - N/A   Unknown
9:35 PM 46.4 °F - 39.2 °F 76% 30.12 in 10.0 mi Calm Calm - N/A   Unknown
9:55 PM 48.2 °F - 39.2 °F 71% 30.13 in 10.0 mi NW 9.2 mph - N/A   Unknown
10:15 PM 46.4 °F 45.2 °F 37.4 °F 71% 30.14 in 10.0 mi SSE 3.5 mph - N/A   Unknown
10:35 PM 42.8 °F 39.3 °F 37.4 °F 81% 30.12 in 10.0 mi South 5.8 mph - N/A   Unknown
10:55 PM 44.6 °F 43.1 °F 37.4 °F 76% 30.12 in 10.0 mi SSE 3.5 mph - N/A   Unknown
11:15 PM 41.0 °F 38.0 °F 37.4 °F 87% 30.12 in 10.0 mi SW 4.6 mph - N/A   Unknown
11:35 PM 41.0 °F 38.0 °F 35.6 °F 81% 30.12 in 10.0 mi South 4.6 mph - N/A   Unknown
11:55 PM 41.0 °F - 35.6 °F 81% 30.12 in 10.0 mi Calm Calm - N/A   Unknown